CAPE
651 714 1223 1200 1368 1593 1720 1726 1930 2094 2152 2034 1806 1741 1758 1713 1503 1907 2008 2002 2018 2035 2010 1979 1720 1689 1770 1661 1721 1561 1558 1405 1392 1174 1146 1079 696 742 718 610 460 1029 1050
493 835 1532 1596 1641 1734 1766 1761 1745 1723 1820 1995 2299 2287 2099 1892 2082 2096 2036 1978 2025 2002 2086 2002 1864 1861 1871 1837 1598 1445 1284 1306 1084 998 1141 871 805 569 1003 767 1103 1112 598
509 888 970 1351 1506 1430 1468 1364 1363 1376 1371 1326 1519 1945 2048 1915 1946 2111 2121 2116 1839 1953 1997 2138 2093 1973 2000 1426 1415 1050 984 1314 927 680 310 306 1107 1120 203 565 1235 1202 1078
191 476 695 1206 1453 1433 1394 1943 1585 1735 1617 1394 1285 1290 1936 1779 1896 2101 2157 2218 1996 2008 1966 2003 2117 2107 2001 1413 1022 1052 993 902 620 565 444 207 575 683 686 980 1140 1123 1164
222 776 1419 1527 1570 1383 1686 1677 1712 1735 1745 1336 1790 1896 1411 1942 1829 1981 2057 2110 2128 2013 1877 1777 1922 1643 1428 743 819 891 846 861 489 714 179 24 366 759 694 672 1203 882 489
772 996 1701 1783 1592 1476 1683 1450 1609 1685 1469 1300 1216 1293 1712 1540 1759 1842 1954 1961 2024 2080 1946 1849 1793 1831 1469 1068 1098 1021 1020 1185 356 483 696 720 554 227 434 1091 1294 1216 373
571 949 1310 1591 1728 1503 1563 1588 1610 1576 1390 1375 1533 1570 1597 1646 1642 1786 1961 1823 1933 1917 1803 2006 1924 1993 1742 1021 1057 983 1249 1297 283 94 476 1186 1196 345 367 527 947 1201 330
309 765 1117 1561 1670 1417 1371 1617 1533 1550 1635 1616 1614 1692 1593 1736 1710 1829 1799 1839 1859 1972 2080 1984 2020 2113 1738 870 834 901 812 956 909 909 267 290 782 361 448 564 661 968 1179
526 742 991 1174 1423 1551 1432 1686 1628 1693 1679 1604 1675 1582 1580 1647 1418 1535 1779 1831 1858 1996 2006 1925 1950 1894 908 524 702 591 613 698 479 515 17 433 669 817 911 626 633 776 985
301 512 806 1030 1177 1027 1419 1546 1655 1669 1589 1610 1381 1700 1398 1470 1459 1535 1702 1926 1915 1897 1738 1657 1619 929 169 378 453 568 650 707 74 204 553 1212 1422 963 1147 1547 887 122 930
387 404 581 1005 1229 1150 1233 1435 1538 1682 1555 1227 1018 1019 1165 1301 1347 1519 1672 1829 1771 1740 1708 1670 1432 1196 882 606 476 606 910 1026 694 831 960 1444 1482 805 682 1140 1002 176 443
305 556 832 864 1011 1217 724 1312 1256 1267 1345 1218 1172 923 912 1202 633 1107 1563 1584 1339 1270 1244 1504 1756 1345 1626 1121 785 767 1134 433 859 1163 1231 1342 1110 1063 1055 509 245 363 247
377 677 560 955 909 1120 846 970 1139 1301 1261 1319 917 1165 1302 766 383 657 1066 1061 1073 1138 1268 1263 1526 1908 2043 1793 1450 582 105 252 184 224 690 1479 1076 1177 1261 585 536 766 591
446 704 1040 1087 1372 1042 3 509 1070 1117 1220 1177 1041 1341 687 1051 1117 1163 1298 1366 1389 1612 1081 1209 465 510 798 335 226 62 43 165 103 43 258 443 764 663 1160 811 909 656 568
390 697 953 1068 864 857 267 516 493 786 840 484 872 849 1266 505 1089 975 621 853 1025 1407 1370 1499 1015 1822 1174 542 752 432 315 485 369 144 71 66 77 102 221 448 495 602 828
228 105 636 1151 870 1073 905 486 41 193 692 865 984 1082 1220 872 693 769 1069 674 1296 1600 1404 1085 610 956 603 887 795 761 802 670 1059 528 168 169 131 113 143 266 374 399 397
38 173 155 432 1009 1061 875 1012 660 449 720 1012 813 1365 1300 976 1334 709 914 1215 1153 1289 955 1704 1807 1756 827 763 592 967 730 935 903 943 931 646 477 405 470 438 447 455 488
59 164 119 87 510 913 973 1030 517 16 0 465 1137 1101 1569 1230 1327 1208 1078 1207 1062 1040 952 1280 1300 870 1451 676 697 773 730 725 920 1054 858 1282 1187 1131 861 914 704 652 673
57 182 65 311 321 828 772 1058 1214 628 524 1095 1204 1261 1253 1440 1394 1713 1359 1274 900 1432 1397 1008 414 694 1204 601 492 453 399 838 872 1006 900 973 852 1472 1582 1166 1151 1211 1072
86 169 146 369 449 1008 685 1275 1091 1221 1031 1219 635 1207 1286 1513 1353 1155 1366 1240 1357 1353 1040 594 1266 1218 910 494 762 420 761 856 599 851 828 1136 797 1057 1688 1640 1687 1733 1368
79 152 209 796 586 1032 913 682 900 1086 1323 1012 1095 1194 1202 1481 1253 1004 1220 912 1786 815 1367 1333 849 782 1059 751 1200 697 461 350 608 813 832 913 700 1184 953 1368 1812 1955 1695
0 155 214 926 585 1198 554 1038 1148 513 1185 1109 1360 1421 1439 1341 1328 1459 1195 829 1436 1460 1536 1513 1709 1357 845 571 1023 1498 587 697 515 448 457 634 534 871 1116 1403 1718 2001 2215
0 124 265 1023 615 1129 760 1142 257 349 1201 1161 991 1379 1387 1304 1245 1371 1623 1447 1008 1667 1295 1429 1538 1087 1004 294 560 1373 1199 1023 359 368 482 523 915 1234 1464 1434 1790 2095 2309
0 38 375 1237 790 963 891 995 1125 836 665 1129 1183 1209 1246 1049 1315 1430 1260 1769 1411 1482 1169 1550 1305 1482 1534 1252 514 673 1201 1437 1769 867 709 738 1129 1342 1350 1942 2090 2312 2544
0 54 367 1033 1115 1124 1081 687 667 361 0 590 413 1154 1115 1166 1021 1250 1536 1455 1374 816 939 1550 1299 1741 1932 1609 1534 679 793 1135 1215 1327 1049 1231 1456 1646 1733 1546 1882 2220 2726
0 0 377 809 1244 1010 1332 1157 817 620 319 626 588 760 1205 983 1371 1196 1276 1568 1662 1049 1457 1678 1494 1643 1919 1697 1541 1681 1396 1288 1440 1021 1286 1232 1013 1041 1102 1581 1530 1697 2342
CIN
-0 -17 -1 -4 -0 -0 -0 -0 -0 -0 -0 -0 -0 -0 -0 -4 -7 -2 -2 -1 -2 -0 -0 -0 -0 -0 -0 -0 -0 -0 -0 -4 -1 -0 -0 -0 -2 -2 -1 -3 -5 -0 -0
-19 -13 -0 -0 -0 -0 -0 -0 -0 -0 -1 -0 -0 -0 -0 -1 -0 -1 -2 -2 -1 -1 -0 -0 -0 -0 -0 -0 -0 -0 -7 -13 -18 -19 -2 -0 -0 -6 -6 -8 -1 -0 -8
-25 -18 -13 -0 -0 -1 -0 -5 -6 -6 -8 -16 -9 -0 -0 -0 -0 -0 -1 -1 -2 -1 -0 -0 -0 -0 -0 -10 -12 -22 -27 -7 -4 -2 -39 -27 -1 -1 -47 -14 -0 -0 -0
-61 -26 -30 -2 -0 -0 -0 -0 -0 -0 -0 -0 -7 -5 -0 -0 -0 -0 -0 -0 -1 -0 -0 -0 -0 -0 -0 -15 -27 -21 -20 -17 -7 -12 -9 -29 -4 -0 -2 -0 -0 -0 -0
-15 -7 -1 -1 -0 -0 -0 -0 -0 -0 -0 -1 -0 -0 -1 -0 -0 -0 -0 -0 -0 -0 -0 -1 -0 -0 -14 -41 -34 -35 -35 -11 -23 -13 -40 -106 -21 -0 -1 -1 -0 -4 -20
-3 -5 -0 -0 -0 -0 -0 -1 -0 -0 -1 -1 -4 -3 -0 -0 -0 -0 -0 -0 -0 -0 -0 -0 -0 -4 -16 -29 -33 -31 -33 -17 -11 -22 -34 -23 -18 -46 -18 -0 -0 -0 -49
-24 -18 -0 -0 -0 -0 -0 -0 -0 -0 -2 -0 -0 -0 -0 -0 -0 -0 -0 -0 -0 -1 -1 -0 -1 -0 -8 -31 -38 -36 -36 -8 -24 -80 -48 -4 -0 -38 -32 -17 -0 -0 -73
-29 -13 -3 -0 -0 -0 -0 -0 -0 -0 -0 -0 -0 -0 -0 -0 -0 -0 -0 -0 -0 -0 -2 -2 -1 -0 -15 -46 -38 -31 -27 -17 -8 -27 -75 -92 -10 -46 -39 -20 -14 -3 -0
-21 -15 -4 -0 -0 -0 -0 -0 -0 -0 -0 -0 -0 -0 -1 -0 -0 -0 -0 -0 -0 -0 -2 -10 -15 -22 -67 -78 -45 -40 -27 -13 -19 -33 -87 -66 -27 -9 -2 -28 -29 -7 -0
-8 -24 -5 -7 -0 -0 -0 -0 -0 -0 -0 -1 -13 -1 -9 -8 -0 -1 -2 -0 -2 -11 -28 -37 -42 -69 -125 -75 -61 -52 -42 -20 -61 -68 -69 -8 -0 -1 -0 -0 -2 -108 -2
-7 -6 -19 -8 -5 -1 -5 -5 -4 -0 -9 -27 -19 -16 -3 -6 -1 -1 -8 -9 -20 -29 -40 -44 -52 -66 -78 -70 -56 -48 -55 -21 -21 -52 -51 -6 -0 -23 -34 -2 -6 -130 -73
-12 -4 -0 -3 -19 -2 -12 -22 -15 -13 -4 -13 -11 -26 -23 -9 -18 -17 -22 -27 -39 -43 -46 -50 -46 -55 -44 -37 -47 -40 -38 -12 -29 -66 -52 -17 -20 -17 -12 -89 -155 -126 -164
-22 -36 -36 -10 -13 -0 -13 -7 -6 -5 -11 -3 -22 -12 -7 -14 -42 -44 -45 -36 -44 -46 -18 -35 -33 -45 -44 -40 -26 -13 -22 -21 -72 -94 -99 -25 -31 -17 -8 -105 -122 -80 -125
-18 -6 -9 -10 -14 -5 -120 -37 -2 -11 -5 -3 -11 -7 -17 -16 -11 -11 -10 -7 -14 -18 -30 -20 -92 -31 -6 -15 -13 -45 -39 -17 -66 -131 -160 -129 -103 -112 -48 -105 -95 -148 -175
-49 -1 -14 -21 -12 -10 -104 -34 -58 -22 -6 -10 -8 -10 -5 -18 -6 -7 -10 -6 -25 -9 -17 -18 -17 -10 -9 -5 -2 -6 -10 -3 -60 -114 -199 -260 -273 -272 -255 -220 -222 -203 -164
-5 -25 -15 -4 -15 -2 -4 -58 -105 -84 -21 -7 -6 -3 -6 -9 -14 -9 -8 -4 -3 -11 -11 -37 -22 -21 -21 -5 -7 -3 -2 -15 -8 -74 -158 -237 -242 -280 -290 -297 -273 -272 -273
-6 -22 -44 -16 -6 -8 -7 -13 -42 -69 -44 -7 -18 -5 -4 -8 -3 -14 -12 -10 -7 -9 -12 -11 -18 -10 -23 -11 -12 -6 -13 -15 -22 -13 -60 -134 -184 -232 -232 -245 -257 -270 -269
-23 -38 -59 -29 -5 -2 -4 -9 -94 -269 -0 -46 -11 -7 -4 -4 -3 -11 -8 -9 -9 -13 -14 -12 -30 -35 -12 -14 -9 -12 -9 -24 -18 -32 -32 -34 -87 -136 -192 -177 -200 -221 -215
-31 -40 -54 -15 -12 -1 -8 -2 -23 -53 -56 -32 -5 -5 -8 -1 -7 -6 -14 -11 -16 -11 -14 -27 -36 -43 -9 -6 -7 -18 -22 -8 -21 -9 -31 -54 -76 -72 -111 -132 -142 -138 -156
-22 -27 -21 -12 -22 -1 -11 -3 -8 -4 -17 -17 -57 -15 -8 -7 -6 -26 -7 -14 -16 -13 -13 -15 -28 -30 -11 -31 -10 -16 -18 -6 -10 -19 -41 -44 -54 -69 -60 -78 -100 -94 -136
-28 -25 -23 -6 -19 -3 -5 -5 -10 -5 -1 -9 -31 -9 -10 -3 -3 -30 -18 -21 -10 -25 -9 -14 -11 -8 -9 -15 -12 -18 -26 -33 -29 -21 -38 -24 -71 -53 -60 -58 -34 -45 -104
-0 -18 -25 -10 -22 -3 -7 -8 -11 -40 -7 -10 -11 -4 -6 -8 -12 -4 -12 -12 -8 -4 -12 -12 -8 -16 -15 -14 -22 -12 -11 -23 -32 -40 -67 -61 -88 -56 -51 -43 -53 -43 -36
-0 -26 -21 -6 -30 -10 -6 -12 -65 -62 -8 -8 -17 -11 -3 -4 -8 -7 -7 -7 -7 -5 -15 -14 -6 -21 -14 -32 -24 -15 -17 -9 -19 -54 -82 -83 -55 -31 -17 -42 -42 -22 -30
-0 -43 -13 -1 -22 -14 -15 -3 -12 -13 -18 -5 -11 -19 -7 -7 -1 -6 -9 -7 -11 -15 -17 -13 -7 -18 -13 -14 -21 -27 -35 -26 -13 -6 -26 -48 -66 -32 -18 -10 -11 -20 -21
-0 -50 -29 -2 -16 -4 -4 -8 -13 -32 -0 -68 -25 -10 -3 -9 -9 -1 -6 -11 -6 -34 -20 -9 -9 -13 -12 -19 -20 -18 -26 -22 -23 -19 -10 -12 -24 -9 -17 -24 -8 -2 -4
-0 -0 -39 -16 -13 -23 -4 -8 -11 -27 -61 -50 -30 -22 -4 -10 -4 -11 -7 -5 -3 -23 -4 -4 -13 -19 -14 -19 -27 -21 -27 -27 -29 -152 -20 -18 -10 -12 -17 -19 -38 -38 -14
Wind_Speed
29 29 29 29 28 27 26 20 14 13 13 12 14 14 11 12 14 11 14 19 16 4 4 6 3 9 15 19 22 29 33 31 31 27 25 22 23 25 29 30 27 24 24
29 29 28 29 27 26 24 23 20 15 12 11 11 12 11 10 2 12 12 8 4 4 9 9 10 12 10 13 13 19 33 34 34 33 28 24 24 23 24 24 25 25 25
29 29 28 28 27 27 26 25 22 19 13 10 10 11 9 10 13 11 13 10 10 8 15 7 17 14 10 3 14 19 22 26 32 33 30 28 23 24 24 25 25 27 26
30 29 28 28 28 27 26 25 24 22 16 10 8 10 10 10 10 9 15 14 12 8 12 12 15 19 11 11 15 16 16 18 19 20 22 25 24 21 24 26 26 28 27
29 26 27 27 27 26 25 24 23 21 18 11 7 8 11 14 13 9 14 16 16 14 11 5 6 14 4 10 12 11 10 5 34 22 21 25 21 21 26 28 26 24 26
26 26 27 27 26 26 25 25 25 24 15 11 7 7 4 16 17 7 7 11 15 13 19 13 3 12 2 12 13 10 7 6 8 21 22 20 24 27 26 25 24 27 26
26 27 26 26 25 26 26 27 27 27 26 3 4 7 11 15 12 4 8 12 19 3 24 1 8 12 5 14 13 11 6 4 29 24 23 26 28 27 26 25 26 26 26
27 25 25 25 25 26 27 28 29 29 29 27 13 11 12 15 16 10 4 8 2 6 19 10 16 27 16 16 16 11 7 6 27 25 25 26 26 26 26 26 26 25 25
26 25 25 25 25 26 27 28 28 29 29 29 29 27 21 16 12 4 1 3 1 3 8 26 17 28 23 22 21 19 18 19 25 28 27 27 27 26 26 26 26 25 26
26 25 25 25 25 26 27 27 27 29 29 29 29 29 30 28 3 1 3 5 3 2 21 27 27 28 29 28 24 20 18 16 25 24 26 26 25 26 25 23 26 23 22
26 27 24 25 25 26 26 27 27 28 29 29 29 27 25 27 25 15 3 16 17 23 25 24 25 25 25 26 25 20 17 19 27 28 24 22 25 23 23 22 22 21 20
19 26 25 24 26 28 25 27 27 27 27 25 28 26 26 27 29 27 26 25 24 24 23 22 23 21 22 21 19 18 16 27 27 24 22 22 21 21 21 20 21 21 20
24 20 25 25 26 27 25 27 26 27 25 27 24 25 21 21 30 29 29 27 25 22 19 16 13 17 17 17 20 20 22 26 28 22 22 22 22 20 22 20 20 20 19
16 21 25 22 23 17 14 29 26 25 24 26 26 27 27 24 18 24 24 24 19 21 11 10 21 16 10 5 4 8 5 12 26 24 23 23 21 21 21 19 19 17 16
24 22 20 23 22 20 32 24 5 11 19 23 23 23 25 23 20 20 25 22 25 22 19 9 18 13 9 15 6 5 9 9 26 25 24 24 23 22 20 19 18 17 15
20 18 19 24 23 12 24 22 21 23 19 22 23 18 23 25 23 26 23 25 16 10 7 7 14 10 8 11 9 10 11 14 12 23 24 24 23 23 21 19 18 16 15
16 16 21 23 25 4 18 23 23 22 19 25 6 16 14 24 15 21 19 19 21 18 19 22 17 12 14 16 16 21 18 21 16 15 24 23 22 21 20 19 18 17 15
13 14 24 23 23 24 24 22 20 22 20 23 26 23 20 20 21 21 19 20 22 22 18 14 13 13 15 18 17 21 20 22 22 21 17 21 22 21 19 18 18 17 15
12 15 25 16 22 23 24 22 24 25 25 21 15 21 24 23 23 18 17 21 23 17 15 15 15 15 12 16 19 18 18 21 23 23 20 19 18 21 20 17 16 16 14
12 12 26 16 16 22 25 20 23 24 23 7 7 19 23 22 23 18 20 21 21 17 19 18 17 18 14 17 12 17 17 16 21 22 20 21 16 16 23 17 15 14 14
12 15 13 12 16 19 24 23 23 22 22 21 23 24 24 24 24 24 21 23 20 19 19 20 19 16 13 14 11 18 21 20 20 21 19 22 19 20 17 16 11 16 14
11 16 17 12 17 25 25 16 13 18 19 18 20 22 16 22 23 22 23 25 21 22 20 18 16 14 17 12 12 12 22 22 19 16 16 16 14 16 20 15 16 13 9
9 14 20 12 20 27 25 8 10 19 22 21 21 20 22 23 23 19 18 15 23 19 21 20 18 14 14 13 14 12 16 21 20 19 20 15 17 11 12 17 16 13 11
9 11 16 11 20 29 24 15 12 18 15 19 15 20 23 23 23 23 22 19 18 14 19 20 19 15 15 13 16 12 15 15 20 23 20 19 18 16 10 13 18 14 11
10 10 11 15 15 29 9 6 16 5 23 23 22 22 22 23 23 23 23 21 17 16 20 19 18 16 12 13 12 19 15 18 19 19 23 19 20 18 15 10 10 9 8
10 10 11 14 14 25 28 9 16 17 17 26 23 16 19 22 22 21 23 22 21 21 23 20 19 17 15 14 14 13 13 18 16 13 12 13 13 12 14 13 12 11 13
Wind_Direction
108 108 101 100 93 92 83 56 32 23 17 11 14 15 8 10 26 26 25 31 30 94 114 135 101 29 29 34 42 59 69 66 65 57 49 43 45 49 62 61 50 39 38
101 103 99 98 90 80 72 63 51 29 13 4 3 10 7 3 20 18 19 16 33 40 30 30 143 26 25 29 32 121 82 83 77 71 57 45 43 42 40 40 41 40 38
100 102 97 96 91 88 88 81 63 43 16 354 355 1 357 7 20 16 21 16 20 25 36 29 33 27 23 120 145 138 132 124 97 82 58 55 39 40 39 45 42 47 42
102 100 97 99 99 91 86 78 72 62 36 4 350 5 5 12 11 8 29 24 24 19 29 26 29 34 24 153 149 144 142 136 138 138 79 48 41 33 41 48 46 54 47
100 90 96 96 94 87 82 72 70 56 46 14 351 1 17 32 29 13 31 35 34 30 20 11 17 25 16 158 156 154 151 128 83 44 40 47 35 33 51 66 44 36 41
89 89 92 93 90 85 78 80 78 73 41 20 357 352 302 45 52 3 8 24 35 26 36 23 2 19 164 160 157 162 163 166 17 39 40 32 41 53 52 48 38 50 44
89 94 92 91 87 86 85 88 93 107 86 236 246 3 26 39 30 340 21 35 49 220 126 204 165 153 177 158 160 160 159 141 72 49 41 54 72 58 55 50 50 48 48
95 92 97 94 90 94 96 94 99 101 102 123 49 28 32 38 48 31 7 26 327 189 151 172 101 104 150 154 155 165 177 175 64 53 51 63 63 60 58 61 58 45 46
89 87 101 97 95 96 102 93 95 97 106 107 99 88 62 43 34 6 300 12 252 1 175 74 39 93 127 138 141 141 141 137 52 72 64 80 76 69 71 72 61 57 73
93 93 98 101 105 101 109 97 95 101 109 112 112 105 98 87 203 38 193 202 216 319 151 110 115 91 100 113 127 138 139 147 61 52 68 99 96 92 100 106 91 107 113
95 108 95 104 105 104 102 110 101 110 116 114 112 122 129 125 140 171 195 177 172 149 137 133 126 124 124 117 114 130 146 142 75 77 112 123 113 117 117 120 119 120 120
71 105 105 92 108 132 95 122 117 114 123 135 113 128 130 133 113 140 148 150 149 146 139 136 133 142 131 128 134 140 149 103 73 110 129 128 128 127 126 125 122 119 117
103 89 99 141 117 138 104 135 127 121 130 118 141 138 154 157 110 119 130 136 142 152 157 162 187 173 158 169 153 137 129 113 92 124 128 131 130 133 127 126 123 121 119
76 89 108 91 121 98 200 129 114 137 142 130 128 128 134 145 163 150 143 133 164 154 223 231 55 173 180 242 227 205 229 174 111 119 126 131 133 131 131 132 130 129 128
104 102 87 103 133 106 110 125 346 216 169 143 152 157 136 140 157 131 133 147 125 143 155 215 171 183 198 170 218 220 190 182 122 121 127 128 128 133 135 136 133 130 129
95 81 79 116 153 200 78 66 77 153 180 165 155 174 144 124 132 129 141 131 171 206 267 238 188 184 205 193 194 187 178 171 176 139 127 130 128 130 132 132 131 131 132
93 78 100 113 128 308 181 86 136 176 166 138 255 199 199 128 175 165 167 162 147 170 158 145 177 204 190 172 166 152 153 145 163 167 140 134 135 136 133 131 130 132 131
87 81 129 119 113 120 113 111 69 166 157 152 136 161 179 180 168 167 168 156 143 150 163 192 206 201 188 167 168 156 153 145 146 152 162 145 139 140 139 134 130 130 130
90 92 147 91 117 118 129 116 109 128 149 161 182 169 137 160 169 189 187 165 154 175 184 177 182 182 196 187 166 162 166 159 146 145 147 161 152 137 138 138 138 135 132
95 95 157 98 92 117 150 162 110 134 120 57 254 182 148 162 153 190 175 171 170 180 172 178 182 177 186 170 201 176 176 182 162 150 150 156 157 164 127 133 143 146 141
102 112 100 89 100 109 158 151 130 144 123 104 103 140 132 145 143 149 174 172 178 186 171 169 173 179 192 191 212 174 160 165 167 164 162 144 145 148 150 145 164 131 138
113 122 121 99 114 150 161 211 160 124 177 129 84 100 66 154 160 158 157 165 177 164 185 193 198 205 185 216 210 215 158 167 173 187 190 185 190 163 143 158 142 137 158
124 126 135 113 133 164 158 30 289 214 170 144 113 99 107 124 155 187 186 209 156 188 182 190 190 214 211 215 204 206 186 148 167 179 169 185 173 207 200 150 155 139 141
137 132 134 121 138 177 207 139 106 199 232 195 206 104 122 128 155 141 173 190 206 221 193 188 197 217 208 232 210 226 207 193 166 156 171 170 176 164 205 179 123 139 141
141 136 139 138 134 175 101 72 113 339 202 192 178 115 120 122 135 146 145 185 215 224 201 201 210 225 248 234 247 179 206 191 182 172 166 177 173 176 173 285 273 265 233
145 140 143 148 144 168 185 107 125 121 128 184 163 95 106 134 129 124 153 145 190 194 171 202 213 230 235 234 235 236 220 188 223 315 216 231 235 245 246 313 284 230 313